Regional Weather Roundup
Issued by NWS

Home | Current Version | Previous Version | Graphics & Text | Print | Product List | Glossary On
Versions: 1 2 3 4 5 6 7 8 9 10 11 12 13 14 15 16 17 18 19 20 21 22 23 24 25 26 27 28 29 30 31 32 33 34 35 36 37 38 39 40 41 42 43 44 45 46 47 48 49 50
000
ASUS45 KBOU 260807
RWRCO

WEATHER ROUNDUP FOR COLORADO
NATIONAL WEATHER SERVICE DENVER/BOULDER CO
200 AM MDT TUE MAY 26 2015

NOTE: "FAIR" INDICATES FEW OR NO CLOUDS BELOW 12000 FEET WITH NO
SIGNIFICANT WEATHER AND/OR OBSTRUCTIONS TO VISIBILITY.

COZ001>005-013-030-031-260900-
...NORTHWEST COLORADO...

CITY           SKY/WX    TMP DP  RH WIND       PRES   REMARKS
CRAIG          PTCLDY    43  41  93 CALM      30.07F
HAYDEN         CLOUDY    45  39  81 E8        30.08F
MEEKER         PTCLDY    43  39  86 NE8       30.08F
MOUNT WERNER   NOT AVBL
STEAMBOAT SPGS CLOUDY    40  39  95 CALM      30.09F
WALDEN         PTCLDY    36  34  93 SE6       29.99F
$$

COZ006>008-011-260900-
...WEST CENTRAL VALLEYS...

CITY           SKY/WX    TMP DP  RH WIND       PRES   REMARKS
GRAND JUNCTION PTCLDY    53  44  71 E5        30.02S
MONTROSE       PTCLDY    47  40  76 SE8       30.09S
EAGLE          CLOUDY    46  45  93 E3        30.12F
RIFLE          PTCLDY    47  44  90 CALM      30.08F
DELTA          PTCLDY    50  44  78 MISG      30.06S
NUCLA          CLEAR     45  39  81 E12       30.12S
$$

COZ017>023-064>068-260900-
...SOUTHWEST COLORADO...

CITY           SKY/WX    TMP DP  RH WIND       PRES   REMARKS
DURANGO        CLEAR     39  36  89 N5        30.11S
CORTEZ         CLEAR     41  39  93 E5        30.09F
PAGOSA SPRINGS CLEAR     38  38  99 CALM      30.15S
TELLURIDE      CLOUDY    38  35  91 CALM      30.22S
WOLF CREEK PAS NOT AVBL
$$

COZ009-010-012-014-032>034-037-058>063-260900-
...CENTRAL COLORADO...

CITY           SKY/WX    TMP DP  RH WIND       PRES   REMARKS
ASPEN          CLOUDY    41  38  89 SW6       30.14F
BUENA VISTA    MOCLDY    43  34  72 N7        30.12S
COPPER MTN     SNOW      34  30  86 W20G29    30.25F VSB<1/4 WCI  22
BERTHOUD PASS  HAZE      27  19  74 NW22G37   30.25S VSB<1/4 WCI  12
COTTONWOOD PAS CLOUDY    43  30  61 W7        30.19S
GUNNISON       PTCLDY    43  34  70 NW5       30.17S
KREMMLING      PTCLDY    41  36  81 CALM      30.13F
LEADVILLE      CLOUDY    33  32  96 NE6       30.17F WCI  28
MONARCH PASS   CLOUDY    30  28  93 W21       30.36S WCI  17
SALIDA         PTCLDY    44  37  75 W3        30.19S
SUNLIGHT       CLOUDY    36  34  93 CALM      30.26S FOG
WILKERSON PASS CLEAR     32  28  86 NW8       30.25S WCI  25
$$

COZ069>075-260900-
...SAN LUIS VALLEY/SANGRE DE CRISTO MOUNTAINS...

CITY           SKY/WX    TMP DP  RH WIND       PRES   REMARKS
ALAMOSA        PTCLDY    41  36  82 CALM      30.12R
LA VETA PASS   PTCLDY   N/A N/A N/A MISG      30.18F
SAGUACHE       PTCLDY    41  34  75 NW6       30.13S
$$

COZ035-036-038>040-260900-
...NORTHERN COLORADO FRONT RANGE...

CITY           SKY/WX    TMP DP  RH WIND       PRES   REMARKS
DENVER INTL AP CLOUDY    50  44  80 SW12      30.01F
DMNS CITY PARK   N/A     48  45  88 S3        30.00F
AURORA         MOCLDY    47  44  89 S6        30.03F
FRONT RANGE AP CLOUDY    52  46  82 SW7       30.02F
ERIE MUNI ARPT MOCLDY    47  46  95 CALM      30.00F
BOULDER MUN AP MOCLDY    46  45  93 CALM      30.01S
CENTENNIAL     MOCLDY    46  43  89 E6        30.03F
BROOMFIELD     MOCLDY    48  43  81 CALM      30.02F
FORT COLLINS   PTCLDY    46  45  93 CALM      30.02S
LONGMONT       PTCLDY    47  44  90 W5        30.02F
$$

COZ041-046-047-076>085-087-088-260900-
...PIKES PEAK/PALMER DIVIDE AND SOUTHERN FOOTHILLS...

CITY           SKY/WX    TMP DP  RH WIND       PRES   REMARKS
COLO. SPRINGS  PTCLDY    45  42  89 CALM      30.05S
A. F. ACADEMY  CLEAR     41  40  99 N6        30.05
ELLICOTT       NOT AVBL
FALCON         PTCLDY    42  40  93 NW7       30.07F
FORT CARSON    CLEAR     45  42  90 N12       30.02S
LIMON          CLOUDY    52  42  69 N15       29.98F
MONUMENT HILL  NOT AVBL
TRINIDAD       PTCLDY    45  41  86 W9        30.04S
$$

COZ042>045-048>051-090-091-260900-
...NORTHEAST COLORADO...

CITY           SKY/WX    TMP DP  RH WIND       PRES   REMARKS
GREELEY ARPT   MOCLDY    46  45  93 N5        30.00S
AKRON          PTCLDY    47  45  93 W10       29.97F
BURLINGTON     PTCLDY    48  44  86 NW9       29.95S
WRAY           MOCLDY   N/A N/A N/A NW6       29.94S
STERLING       CLOUDY    50  46  87 NW3       29.95S
HOLYOKE        NOT AVBL
FORT MORGAN    PTCLDY    48  46  90 W6        29.98S
$$

COZ086-089-092>099-260900-
...SOUTHEAST COLORADO...

CITY           SKY/WX    TMP DP  RH WIND       PRES   REMARKS
PUEBLO         PTCLDY    50  45  83 W6        29.99F
LA JUNTA       PTCLDY    54  48  80 NE3       29.94F
LAMAR          PTCLDY    52  49  89 CALM      29.94R
SPRINGFIELD      N/A     52  48  86 N9        29.96R
$$



USA.gov is the U.S. government's official web portal to all federal, state and local government web resources and services.